• In Uzbekistan
  • List of Countries
  • For 7 days
  • Water Temperature
  • Satellite Maps
  • Weather Map
  • Weather Widgets
  • user-avatar
    Login

    Hourly Weather Duchan

    Today, 23 July, Monday

    Time Temperature Precipitation Wind Pressure Humidity
    00:00 +39°C° 0 mm 6 mps 744 mmHg 32%
    01:00 +39°C° 0 mm 6 mps 744 mmHg 33%
    02:00 +39°C° 0 mm 6 mps 744 mmHg 33%
    03:00 +37°C° 0 mm 5 mps 744 mmHg 34%
    04:00 +37°C° 0 mm 5 mps 744 mmHg 36%
    05:00 +37°C° 0 mm 5 mps 744 mmHg 37%
    06:00 +37°C° 0 mm 5 mps 744 mmHg 39%
    07:00 +40°C° 0 mm 6 mps 745 mmHg 32%
    08:00 +43°C° 0 mm 7 mps 745 mmHg 25%
    09:00 +45°C° 0 mm 8 mps 745 mmHg 18%
    10:00 +46°C° 0 mm 8 mps 745 mmHg 17%
    11:00 +48°C° 0 mm 9 mps 745 mmHg 15%
    12:00 +49°C° 0 mm 9 mps 745 mmHg 14%
    13:00 +48°C° 0 mm 9 mps 744 mmHg 14%
    14:00 +48°C° 0 mm 9 mps 744 mmHg 14%
    15:00 +48°C° 0 mm 9 mps 744 mmHg 14%
    16:00 +47°C° 0 mm 9 mps 744 mmHg 16%
    17:00 +45°C° 0 mm 8 mps 744 mmHg 17%
    18:00 +44°C° 0 mm 8 mps 744 mmHg 19%
    19:00 +43°C° 0 mm 7 mps 744 mmHg 22%
    20:00 +41°C° 0 mm 6 mps 744 mmHg 24%
    21:00 +40°C° 0 mm 4 mps 744 mmHg 27%
    22:00 +38°C° 0 mm 4 mps 744 mmHg 27%
    23:00 +38°C° 0 mm 3 mps 744 mmHg 27%

    Tomorrow, 24 July, Tuesday

    Time Temperature Precipitation Wind Pressure Humidity
    00:00 +38°C° 0 mm 3 mps 743 mmHg 27%
    01:00 +37°C° 0 mm 3 mps 743 mmHg 27%
    02:00 +37°C° 0 mm 3 mps 743 mmHg 27%
    03:00 +37°C° 0 mm 3 mps 743 mmHg 27%
    04:00 +37°C° 0 mm 3 mps 743 mmHg 27%
    05:00 +37°C° 0 mm 4 mps 744 mmHg 27%
    06:00 +38°C° 0 mm 4 mps 744 mmHg 26%
    07:00 +41°C° 0 mm 4 mps 744 mmHg 22%
    08:00 +43°C° 0 mm 5 mps 745 mmHg 18%
    09:00 +46°C° 0 mm 5 mps 745 mmHg 14%
    10:00 +47°C° 0 mm 5 mps 745 mmHg 13%
    11:00 +48°C° 0 mm 5 mps 745 mmHg 12%
    12:00 +49°C° 0 mm 5 mps 745 mmHg 11%
    13:00 +49°C° 0 mm 6 mps 745 mmHg 10%
    14:00 +49°C° 0 mm 6 mps 744 mmHg 10%
    15:00 +50°C° 0 mm 7 mps 744 mmHg 10%
    16:00 +49°C° 0 mm 7 mps 744 mmHg 12%
    17:00 +46°C° 0 mm 6 mps 744 mmHg 14%
    18:00 +45°C° 0 mm 6 mps 744 mmHg 16%
    19:00 +43°C° 0 mm 5 mps 744 mmHg 19%
    20:00 +42°C° 0 mm 4 mps 745 mmHg 22%
    21:00 +39°C° 0 mm 3 mps 745 mmHg 25%
    22:00 +39°C° 0 mm 3 mps 745 mmHg 25%
    23:00 +38°C° 0 mm 2 mps 745 mmHg 26%

    Day after tomorrow, 25 July, Wednesday

    Time Temperature Precipitation Wind Pressure Humidity
    00:00 +38°C° 0 mm 2 mps 744 mmHg 27%
    01:00 +38°C° 0 mm 3 mps 744 mmHg 28%
    02:00 +38°C° 0 mm 3 mps 744 mmHg 28%
    03:00 +37°C° 0 mm 4 mps 744 mmHg 29%
    04:00 +38°C° 0 mm 4 mps 744 mmHg 29%
    05:00 +38°C° 0 mm 4 mps 744 mmHg 29%
    06:00 +38°C° 0 mm 4 mps 745 mmHg 29%
    07:00 +41°C° 0 mm 5 mps 745 mmHg 24%
    08:00 +43°C° 0 mm 5 mps 745 mmHg 19%
    09:00 +46°C° 0 mm 6 mps 745 mmHg 14%
    10:00 +47°C° 0 mm 6 mps 745 mmHg 13%
    11:00 +48°C° 0 mm 6 mps 745 mmHg 12%
    12:00 +50°C° 0 mm 7 mps 745 mmHg 11%
    13:00 +50°C° 0 mm 7 mps 745 mmHg 11%
    14:00 +51°C° 0 mm 7 mps 744 mmHg 10%
    15:00 +51°C° 0 mm 7 mps 744 mmHg 10%
    16:00 +48°C° 0 mm 6 mps 744 mmHg 12%
    17:00 +47°C° 0 mm 6 mps 744 mmHg 14%
    18:00 +46°C° 0 mm 5 mps 743 mmHg 16%
    19:00 +43°C° 0 mm 4 mps 744 mmHg 19%
    20:00 +42°C° 0 mm 3 mps 744 mmHg 23%
    21:00 +39°C° 0 mm 2 mps 744 mmHg 26%
    22:00 +39°C° 0 mm 2 mps 744 mmHg 26%
    23:00 +39°C° 0 mm 2 mps 744 mmHg 26%

    26 July, Thursday

    Time Temperature Precipitation Wind Pressure Humidity
    00:00 +38°C° 0 mm 2 mps 744 mmHg 26%
    01:00 +38°C° 0 mm 3 mps 744 mmHg 26%
    02:00 +38°C° 0 mm 4 mps 743 mmHg 26%
    03:00 +39°C° 0 mm 5 mps 743 mmHg 26%
    04:00 +39°C° 0 mm 5 mps 743 mmHg 26%
    05:00 +39°C° 0 mm 5 mps 744 mmHg 25%
    06:00 +39°C° 0 mm 5 mps 744 mmHg 25%
    07:00 +41°C° 0 mm 6 mps 744 mmHg 21%
    08:00 +44°C° 0 mm 6 mps 744 mmHg 18%
    09:00 +47°C° 0 mm 7 mps 744 mmHg 14%
    10:00 +49°C° 0 mm 7 mps 744 mmHg 13%
    11:00 +49°C° 0 mm 6 mps 744 mmHg 12%
    12:00 +51°C° 0 mm 6 mps 744 mmHg 11%
    13:00 +51°C° 0 mm 6 mps 743 mmHg 12%
    14:00 +51°C° 0 mm 6 mps 743 mmHg 12%
    15:00 +51°C° 0 mm 6 mps 742 mmHg 12%
    16:00 +48°C° 0 mm 6 mps 742 mmHg 15%
    17:00 +47°C° 0 mm 5 mps 742 mmHg 18%
    18:00 +45°C° 0 mm 5 mps 742 mmHg 21%
    19:00 +43°C° 0 mm 4 mps 743 mmHg 23%
    20:00 +42°C° 0 mm 3 mps 743 mmHg 26%
    21:00 +40°C° 0 mm 1 mps 743 mmHg 28%
    22:00 +39°C° 0 mm 2 mps 743 mmHg 28%
    23:00 +39°C° 0 mm 3 mps 743 mmHg 28%

    27 July, Friday

    Time Temperature Precipitation Wind Pressure Humidity
    00:00 +40°C° 0 mm 4 mps 743 mmHg 27%
    01:00 +40°C° 0 mm 5 mps 743 mmHg 28%
    02:00 +40°C° 0 mm 5 mps 743 mmHg 28%
    03:00 +40°C° 0 mm 6 mps 743 mmHg 29%
    04:00 +40°C° 0 mm 7 mps 743 mmHg 28%
    05:00 +40°C° 0 mm 7 mps 743 mmHg 27%
    06:00 +40°C° 0 mm 8 mps 744 mmHg 26%
    07:00 +41°C° 0 mm 8 mps 744 mmHg 23%
    08:00 +44°C° 0 mm 9 mps 744 mmHg 19%
    09:00 +47°C° 0 mm 9 mps 744 mmHg 16%
    10:00 +47°C° 0 mm 9 mps 744 mmHg 15%
    11:00 +48°C° 0 mm 9 mps 743 mmHg 15%
    12:00 +49°C° 0 mm 9 mps 743 mmHg 14%
    13:00 +48°C° 0 mm 9 mps 743 mmHg 14%
    14:00 +48°C° 0 mm 9 mps 743 mmHg 14%
    15:00 +48°C° 0 mm 9 mps 742 mmHg 15%
    16:00 +46°C° 0 mm 8 mps 742 mmHg 17%
    17:00 +45°C° 0 mm 7 mps 742 mmHg 18%
    18:00 +43°C° 0 mm 7 mps 742 mmHg 20%
    19:00 +42°C° 0 mm 5 mps 743 mmHg 23%
    20:00 +41°C° 0 mm 4 mps 743 mmHg 26%
    21:00 +39°C° 0 mm 3 mps 743 mmHg 29%
    22:00 +39°C° 0 mm 3 mps 743 mmHg 28%
    23:00 +40°C° 0 mm 4 mps 743 mmHg 28%

    28 July, Saturday

    Time Temperature Precipitation Wind Pressure Humidity
    00:00 +38°C° 0 mm 4 mps 742 mmHg 28%
    01:00 +38°C° 0 mm 4 mps 742 mmHg 28%
    02:00 +39°C° 0 mm 5 mps 742 mmHg 29%
    03:00 +39°C° 0 mm 5 mps 742 mmHg 30%
    04:00 +39°C° 0 mm 6 mps 742 mmHg 31%
    05:00 +39°C° 0 mm 6 mps 743 mmHg 32%
    06:00 +39°C° 0 mm 7 mps 743 mmHg 33%
    07:00 +40°C° 0 mm 7 mps 743 mmHg 29%
    08:00 +43°C° 0 mm 8 mps 743 mmHg 25%
    09:00 +45°C° 0 mm 8 mps 744 mmHg 20%
    10:00 +46°C° 0 mm 8 mps 743 mmHg 19%
    11:00 +46°C° 0 mm 8 mps 743 mmHg 18%
    12:00 +48°C° 0 mm 8 mps 743 mmHg 17%
    13:00 +48°C° 0 mm 8 mps 743 mmHg 18%
    14:00 +48°C° 0 mm 8 mps 742 mmHg 19%
    15:00 +46°C° 0 mm 8 mps 742 mmHg 20%
    16:00 +45°C° 0 mm 7 mps 742 mmHg 22%
    17:00 +44°C° 0 mm 6 mps 742 mmHg 25%
    18:00 +41°C° 0 mm 6 mps 743 mmHg 28%
    19:00 +40°C° 0 mm 5 mps 743 mmHg 30%
    20:00 +40°C° 0 mm 4 mps 743 mmHg 33%
    21:00 +38°C° 0 mm 3 mps 743 mmHg 36%
    22:00 +38°C° 0 mm 3 mps 743 mmHg 35%
    23:00 +38°C° 0 mm 3 mps 743 mmHg 34%
    Show more